Olney-Noble, IL

7:33 PM CDT on June 25, 2017 (GMT -0500)
Olney-Noble

Weather History for KOLY - April, 2013

Change the Weather History Date:

Saturday, April 6, 2013

  Actual Average (KEVV) Record (KEVV)
Temperature  
Mean Temperature 60 °F -  
Max Temperature 73 °F 62 °F 83 °F (1967)
Min Temperature 46 °F 40 °F 27 °F (1982)
Degree Days  
Heating Degree Days 6    
Growing Degree Days 10 (Base 50)    
Moisture  
Dew Point 38 °F    
Average Humidity 45    
Maximum Humidity 66    
Minimum Humidity 31    
Precipitation  
Precipitation 0.00 in - - ()
Sea Level Pressure  
Sea Level Pressure 29.96 in    
Wind  
Wind Speed 10 mph (SSE)    
Max Wind Speed 22 mph    
Max Gust Speed 30 mph    
Visibility 10 miles    
Events      
Averages and records for this station are not official NWS values.
T = Trace of Precipitation, MM = Missing Value Source: NWS Daily Summary

Daily Weather History Graph

Daily Weather History Graph

Search for Another Location

Airport or City:

Trip Planner

Search our weather history database for the weather conditions in past years. The results will help you decide how hot, cold, wet, or windy it might be!

Date:

Astronomy

Apr. 06, 2013 Rise Set
Actual Time 6:29 AM CDT 7:21 PM CDT
Civil Twilight 6:02 AM CDT 7:48 PM CDT
Nautical Twilight 5:30 AM CDT 8:20 PM CDT
Astronomical Twilight 4:57 AM CDT 8:53 PM CDT
Moon 4:10 AM CDT (4/6) 3:51 PM CDT (4/6)
Length of Visible Light 13h 45m
Length of Day
12h 51m
Waning Crescent, 15% of the Moon is Illuminated
Apr 6
Waning Crescent
Apr 10
New
Apr 18
First Quarter
Apr 25
Full
May 2
Last Quarter

Hourly Weather History & Observations

Time (CDT) Temp. Windchill Dew Point Humidity Pressure Visibility Wind Dir Wind Speed Gust Speed Precip Events Conditions
12:15 AM 46.4 °F 44.3 °F 33.8 °F 62% 30.09 in 10.0 mi East 4.6 mph - N/A   Clear
12:35 AM 48.2 °F - 33.8 °F 58% 30.09 in 10.0 mi East 6.9 mph - N/A   Clear
12:55 AM 46.4 °F 41.9 °F 35.6 °F 66% 30.08 in 10.0 mi East 9.2 mph - N/A   Clear
1:15 AM 48.2 °F - 33.8 °F 58% 30.08 in 10.0 mi East 10.4 mph - N/A   Clear
1:35 AM 48.2 °F - 33.8 °F 58% 30.08 in 10.0 mi ESE 6.9 mph - N/A   Clear
1:55 AM 48.2 °F - 33.8 °F 58% 30.09 in 10.0 mi ESE 4.6 mph - N/A   Clear
2:15 AM 48.2 °F - 33.8 °F 58% 30.08 in 10.0 mi ESE 4.6 mph - N/A   Clear
2:35 AM 48.2 °F - 32.0 °F 54% 30.08 in 10.0 mi ESE 5.8 mph - N/A   Clear
2:55 AM 48.2 °F - 33.8 °F 58% 30.08 in 10.0 mi ESE 5.8 mph - N/A   Clear
3:15 AM 48.2 °F - 33.8 °F 58% 30.08 in 10.0 mi ESE 4.6 mph - N/A   Clear
3:35 AM 46.4 °F 44.3 °F 33.8 °F 62% 30.08 in 10.0 mi ESE 4.6 mph - N/A   Clear
4:15 AM 46.4 °F 44.3 °F 32.0 °F 57% 30.08 in 10.0 mi SE 4.6 mph - N/A   Clear
4:35 AM 46.4 °F 43.5 °F 33.8 °F 62% 30.08 in 10.0 mi SE 5.8 mph - N/A   Clear
4:55 AM 46.4 °F 43.5 °F 33.8 °F 62% 30.07 in 10.0 mi SE 5.8 mph - N/A   Clear
5:15 AM 46.4 °F 41.9 °F 33.8 °F 62% 30.07 in 10.0 mi SE 9.2 mph - N/A   Clear
5:35 AM 48.2 °F - 33.8 °F 58% 30.06 in 10.0 mi SE 9.2 mph - N/A   Clear
5:55 AM 48.2 °F - 33.8 °F 58% 30.06 in 10.0 mi SE 9.2 mph - N/A   Clear
6:15 AM 48.2 °F - 33.8 °F 58% 30.06 in 10.0 mi SE 10.4 mph - N/A   Clear
6:35 AM 48.2 °F - 33.8 °F 58% 30.07 in 10.0 mi SE 8.1 mph - N/A   Clear
6:55 AM 48.2 °F - 33.8 °F 58% 30.07 in 10.0 mi SSE 9.2 mph - N/A   Clear
7:15 AM 48.2 °F - 35.6 °F 62% 30.07 in 10.0 mi SE 8.1 mph - N/A   Clear
7:35 AM 50.0 °F - 35.6 °F 58% 30.08 in 10.0 mi SE 8.1 mph - N/A   Clear
7:55 AM 50.0 °F - 33.8 °F 54% 30.07 in 10.0 mi SE 9.2 mph - N/A   Clear
8:15 AM 50.0 °F - 33.8 °F 54% 30.07 in 10.0 mi SE 11.5 mph - N/A   Clear
8:35 AM 51.8 °F - 33.8 °F 50% 30.07 in 10.0 mi SE 12.7 mph 16.1 mph N/A   Clear
8:55 AM 51.8 °F - 35.6 °F 54% 30.07 in 10.0 mi SE 11.5 mph - N/A   Clear
9:15 AM 53.6 °F - 35.6 °F 51% 30.06 in 10.0 mi SSE 11.5 mph - N/A   Clear
9:35 AM 55.4 °F - 35.6 °F 47% 30.05 in 10.0 mi SSE 15.0 mph - N/A   Clear
9:55 AM 59.0 °F - 35.6 °F 42% 30.05 in 10.0 mi SSE 13.8 mph 19.6 mph N/A   Clear
10:15 AM 60.8 °F - 37.4 °F 42% 30.04 in 10.0 mi SSE 12.7 mph - N/A   Clear
10:35 AM 62.6 °F - 37.4 °F 39% 30.04 in 10.0 mi South 11.5 mph - N/A   Clear
10:55 AM 64.4 °F - 37.4 °F 37% 30.04 in 10.0 mi South 12.7 mph 19.6 mph N/A   Clear
11:15 AM 66.2 °F - 39.2 °F 37% 30.03 in 10.0 mi SSE 15.0 mph 20.7 mph N/A   Clear
11:35 AM 66.2 °F - 39.2 °F 37% 30.02 in 10.0 mi South 11.5 mph 19.6 mph N/A   Clear
11:55 AM 66.2 °F - 41.0 °F 40% 30.00 in 10.0 mi South 13.8 mph 23.0 mph N/A   Clear
12:15 PM 69.8 °F - 42.8 °F 38% 30.00 in 10.0 mi South 12.7 mph 25.3 mph N/A   Clear
12:35 PM 69.8 °F - 42.8 °F 38% 29.98 in 10.0 mi South 12.7 mph 20.7 mph N/A   Clear
12:55 PM 69.8 °F - 42.8 °F 38% 29.97 in 10.0 mi South 15.0 mph 20.7 mph N/A   Clear
1:15 PM 71.6 °F - 42.8 °F 35% 29.96 in 10.0 mi SSW 11.5 mph 17.3 mph N/A   Clear
1:35 PM 71.6 °F - 42.8 °F 35% 29.94 in 10.0 mi South 12.7 mph 25.3 mph N/A   Clear
1:55 PM 71.6 °F - 42.8 °F 35% 29.93 in 10.0 mi South 15.0 mph 24.2 mph N/A   Clear
2:15 PM 71.6 °F - 41.0 °F 33% 29.92 in 10.0 mi South 17.3 mph 25.3 mph N/A   Clear
2:35 PM 71.6 °F - 42.8 °F 35% 29.91 in 10.0 mi South 17.3 mph 26.5 mph N/A   Clear
2:55 PM 73.4 °F - 42.8 °F 33% 29.89 in 10.0 mi South 18.4 mph 29.9 mph N/A   Clear
3:15 PM 73.4 °F - 41.0 °F 31% 29.87 in 10.0 mi South 21.9 mph 29.9 mph N/A   Clear
3:35 PM 73.4 °F - 41.0 °F 31% 29.86 in 10.0 mi South 19.6 mph 29.9 mph N/A   Clear
3:55 PM 73.4 °F - 41.0 °F 31% 29.85 in 10.0 mi South 19.6 mph 26.5 mph N/A   Clear
4:15 PM 73.4 °F - 41.0 °F 31% 29.84 in 10.0 mi South 18.4 mph 27.6 mph N/A   Clear
4:35 PM 71.6 °F - 39.2 °F 31% 29.82 in 10.0 mi South 21.9 mph 26.5 mph N/A   Clear
4:55 PM 73.4 °F - 41.0 °F 31% 29.82 in 10.0 mi South 19.6 mph 25.3 mph N/A   Clear
5:15 PM 71.6 °F - 39.2 °F 31% 29.81 in 10.0 mi South 18.4 mph 26.5 mph N/A   Clear
5:35 PM 71.6 °F - 41.0 °F 33% 29.83 in 10.0 mi South 13.8 mph 19.6 mph N/A   Clear
5:55 PM 71.6 °F - 41.0 °F 33% 29.84 in 10.0 mi South 11.5 mph 17.3 mph N/A   Clear
6:15 PM 69.8 °F - 41.0 °F 35% 29.84 in 10.0 mi South 6.9 mph - N/A   Clear
6:35 PM 69.8 °F - 39.2 °F 33% 29.84 in 10.0 mi South 9.2 mph 19.6 mph N/A   Clear
6:55 PM 68.0 °F - 39.2 °F 35% 29.83 in 10.0 mi South 12.7 mph 17.3 mph N/A   Clear
7:15 PM 68.0 °F - 39.2 °F 35% 29.82 in 10.0 mi South 11.5 mph - N/A   Clear
7:35 PM 66.2 °F - 41.0 °F 40% 29.81 in 10.0 mi South 13.8 mph 19.6 mph N/A   Clear
7:55 PM 66.2 °F - 41.0 °F 40% 29.81 in 10.0 mi South 15.0 mph 19.6 mph N/A   Clear
8:15 PM 66.2 °F - 41.0 °F 40% 29.79 in 10.0 mi South 17.3 mph 23.0 mph N/A   Clear
8:35 PM 66.2 °F - 41.0 °F 40% 29.81 in 10.0 mi South 15.0 mph 23.0 mph N/A   Clear
8:55 PM 66.2 °F - 41.0 °F 40% 29.83 in 10.0 mi South 8.1 mph 16.1 mph N/A   Clear
9:15 PM 66.2 °F - 41.0 °F 40% 29.83 in 10.0 mi South 8.1 mph - N/A   Scattered Clouds
9:35 PM 66.2 °F - 41.0 °F 40% 29.84 in 10.0 mi South 9.2 mph - N/A   Clear
9:55 PM 64.4 °F - 42.8 °F 45% 29.85 in 10.0 mi South 6.9 mph - N/A   Scattered Clouds
10:15 PM 64.4 °F - 41.0 °F 42% 29.85 in 10.0 mi South 9.2 mph - N/A   Mostly Cloudy
10:35 PM 64.4 °F - 41.0 °F 42% 29.85 in 10.0 mi South 12.7 mph 17.3 mph N/A   Overcast
10:55 PM 64.4 °F - 41.0 °F 42% 29.84 in 10.0 mi South 10.4 mph 18.4 mph N/A   Mostly Cloudy
11:15 PM 64.4 °F - 39.2 °F 40% 29.84 in 10.0 mi SSW 11.5 mph 18.4 mph N/A   Scattered Clouds
11:35 PM 64.4 °F - 39.2 °F 40% 29.84 in 10.0 mi SSW 10.4 mph - N/A   Clear
11:55 PM 62.6 °F - 41.0 °F 45% 29.84 in 10.0 mi SSW 11.5 mph 17.3 mph N/A   Clear